User: anonymous   Login
Location: Unspecified
(0.0000°N, 0.0000°E)
Time: 21:48:55
(UTC+00:00)
Language:

ZHUHAI-1 01 - Orbit

View from above orbital plane
View from above orbital plane
View from above satellite
View from above satellite

Ground track
Ground track

The orbit data is extracted from the following two-line orbital elements,

1 42761U 17034D   18018.35250567  .00000029  00000-0  15395-4 0  9994
2 42761  43.0164 185.6157 0009678 255.0991 179.4536 15.09241993 32805
Epoch (UTC): 18 January 2018 08:27:36
Eccentricity: 0.0009678
inclination: 43.0164°
perigee height: 532 km
apogee height: 545 km
right ascension of ascending node: 185.6157°
argument of perigee: 255.0991°
revolutions per day: 15.09241993
mean anomaly at epoch: 179.4536°
orbit number at epoch: 3280

The dashed part of the orbit path shows where the satellite is in the earth's shadow,  

DLR